Probability
1 2 3 4 4 4 3 3 2 1 1 0 0 0 0 0 0 0 0 0 0 0 0 0 0 0 0 1 2 2 3 3 2 2 1 1 2 2 1 0 0 0 1
0 1 3 4 4 4 3 3 2 1 0 0 0 0 0 0 0 0 0 0 0 0 0 0 0 0 0 1 2 3 3 3 3 2 1 0 1 2 1 1 0 1 2
0 1 2 4 4 4 3 2 1 1 0 0 0 0 0 0 0 0 0 0 0 0 0 0 0 0 0 1 3 3 3 3 3 3 2 1 1 2 3 2 2 3 4
0 1 2 3 3 3 2 1 1 0 0 0 0 0 0 0 0 0 0 0 0 0 1 1 0 0 0 2 3 3 3 3 3 3 2 1 1 3 4 4 5 5 5
0 0 1 3 3 2 1 1 0 0 0 0 0 0 0 0 0 0 0 0 0 1 2 2 1 0 0 1 2 3 3 3 3 3 1 0 0 2 4 4 5 6 5
0 0 1 2 2 1 1 0 0 0 0 0 1 1 1 1 1 0 0 0 1 2 2 2 1 0 0 1 2 3 4 3 3 3 1 1 1 2 3 4 4 5 5
0 1 1 1 1 1 0 0 0 1 2 2 2 2 3 2 1 0 0 1 1 3 4 3 2 1 1 2 4 6 5 3 3 3 3 2 2 3 3 3 3 4 4
1 2 2 1 1 0 0 0 1 2 3 4 3 3 2 2 1 0 1 1 2 4 5 4 3 2 2 3 5 7 6 4 3 3 3 4 4 5 4 3 2 2 1
3 3 3 3 2 1 0 1 2 3 4 3 2 1 1 1 1 1 1 1 1 3 4 4 4 4 4 4 5 7 6 4 3 2 2 3 5 5 3 2 1 1 0
3 3 3 3 3 1 0 1 2 3 3 3 1 0 0 0 1 1 1 1 1 2 3 4 5 6 6 6 6 6 5 4 3 3 2 4 5 4 2 2 1 0 0
3 3 3 3 3 2 1 0 1 1 2 2 1 0 0 0 1 1 0 0 1 2 3 4 6 8 9 8 7 5 4 3 3 3 3 4 4 3 3 3 2 1 1
3 3 3 3 3 3 1 0 0 0 1 1 0 0 1 1 1 0 1 1 0 1 2 3 5 8 8 7 5 4 3 2 2 3 3 4 4 3 3 3 3 2 2
3 3 3 3 3 2 0 0 1 1 1 1 0 1 2 2 2 1 1 1 0 0 1 3 4 4 4 4 3 2 1 1 1 2 3 4 4 4 3 3 3 4 3
3 3 3 3 2 1 0 0 1 2 2 1 1 2 3 3 3 2 2 1 0 0 0 2 3 2 1 1 1 1 0 0 1 2 4 5 6 5 3 2 3 4 4
3 3 3 3 1 0 0 0 1 2 1 1 1 3 3 4 4 4 3 1 1 1 1 2 2 1 0 0 0 0 0 0 1 2 4 6 7 7 4 3 2 3 5
3 3 3 2 1 0 0 0 1 2 2 2 2 3 3 4 5 5 4 4 3 2 3 3 2 0 0 0 0 0 0 0 0 2 3 4 6 7 8 6 5 4 5
3 3 2 1 0 0 0 0 1 1 2 3 3 2 3 3 5 5 5 6 5 4 4 4 2 1 0 0 0 0 0 0 2 3 3 3 4 6 10 10 7 5 5
2 2 2 1 0 0 0 0 0 0 2 3 3 3 3 3 4 6 7 7 7 5 4 3 2 1 1 0 0 0 0 1 4 4 4 4 4 5 8 9 8 7 6
1 1 2 1 0 0 1 1 1 1 2 3 4 4 5 5 6 8 9 8 7 6 5 3 2 2 2 1 0 0 0 2 4 5 6 6 5 5 6 7 8 8 7
2 3 3 3 3 3 3 3 3 2 2 3 4 5 6 7 7 8 8 7 6 6 6 5 4 5 4 2 1 1 1 3 5 7 8 8 6 6 6 6 6 6 6
5 5 6 7 9 8 7 5 5 3 2 3 5 6 7 8 8 7 7 7 7 7 8 8 8 7 4 3 3 3 3 4 6 9 10 8 5 4 4 4 4 5 6
6 6 7 10 12 11 9 8 6 4 4 4 6 8 8 8 8 8 8 8 9 9 9 9 8 7 5 4 3 4 4 5 7 9 10 8 5 3 2 3 4 5 6
4 5 8 12 13 11 10 10 9 8 6 6 7 8 7 7 8 8 9 10 9 9 9 7 6 6 6 5 5 5 5 5 7 9 10 8 6 4 2 1 2 3 4
4 5 8 12 14 13 12 12 12 10 8 7 7 7 6 6 8 9 10 11 10 10 10 9 8 8 8 8 8 9 7 7 7 9 10 9 7 5 3 2 2 2 2
5 7 9 13 16 17 16 14 13 12 10 8 7 7 6 6 8 10 11 12 14 15 15 15 14 13 12 13 14 14 11 9 9 9 10 11 9 6 4 3 3 3 2
7 8 10 14 17 19 18 16 14 13 11 9 7 7 6 6 7 10 12 13 16 17 19 18 17 16 16 18 19 17 13 10 10 10 10 11 11 7 5 5 4 4 3
Wind_Speed
4 7 8 6 6 6 7 8 10 10 9 9 9 9 9 8 8 9 8 7 7 7 7 7 7 8 7 7 6 6 6 7 8 8 8 8 8 7 6 7 8 7 8
5 7 9 7 7 7 8 9 10 10 9 9 9 9 8 7 7 7 7 7 7 7 7 6 7 7 7 6 6 6 6 6 7 8 8 9 8 8 7 6 5 4 8
6 8 9 7 7 7 7 9 9 9 9 8 8 8 8 7 8 7 7 6 6 6 6 6 6 6 6 6 6 6 6 6 7 8 9 8 8 9 8 7 6 6 7
6 7 9 9 7 7 7 8 8 9 8 8 8 7 7 7 7 7 7 6 6 6 6 6 5 5 5 5 5 5 5 6 6 8 7 5 5 8 8 7 7 7 7
7 7 11 8 7 7 7 7 7 8 8 7 7 6 6 6 6 6 6 6 5 5 5 6 5 5 5 4 4 5 5 5 6 9 4 4 3 6 7 7 7 8 8
7 7 11 7 7 7 7 7 7 7 7 7 6 6 6 6 5 5 5 5 5 5 5 5 5 5 4 5 4 4 4 6 9 6 4 4 3 6 7 8 8 8 8
7 7 10 7 6 6 6 6 6 7 7 6 6 5 5 4 4 4 4 5 5 5 5 4 4 5 5 5 5 5 5 5 7 3 4 4 3 6 7 7 8 8 9
7 7 9 8 6 5 5 5 6 6 6 5 5 4 4 3 3 3 3 4 5 5 5 4 4 5 5 5 5 5 5 8 5 4 4 3 4 5 7 7 8 9 9
6 6 6 8 8 7 6 5 5 5 5 5 4 4 3 3 2 2 3 3 4 4 5 5 5 5 5 5 6 5 5 7 6 3 3 2 4 6 7 8 8 9 9
5 5 5 5 5 6 8 8 5 4 4 4 4 3 3 3 4 4 4 3 3 3 4 4 5 5 5 5 6 6 7 9 6 4 2 2 4 5 6 7 8 8 9
4 4 4 5 4 3 4 7 7 6 5 4 5 4 4 2 2 3 3 3 2 3 3 4 5 5 7 7 7 8 9 4 3 2 1 3 2 3 5 6 7 8 8
5 4 3 4 4 3 3 4 3 3 4 2 1 2 1 1 0 0 5 3 3 4 5 5 6 8 9 5 7 9 4 3 3 2 1 4 4 5 5 6 6 8 9
4 4 4 3 2 2 2 2 1 2 2 2 2 1 0 1 1 1 1 3 3 4 4 4 6 4 3 1 2 3 3 3 2 2 2 4 4 6 6 6 6 6 7
4 4 3 4 3 2 1 1 1 1 1 1 2 0 0 0 0 0 0 1 1 1 1 2 1 1 2 2 3 3 3 3 2 1 1 4 4 5 6 6 6 7 7
4 4 4 3 3 3 2 1 1 1 1 1 0 1 1 1 0 1 1 1 1 1 1 1 1 1 2 3 3 3 4 3 3 3 2 5 5 5 6 7 7 7 7
4 4 4 4 4 3 2 1 1 1 1 0 0 0 1 1 0 1 1 1 1 1 1 1 1 1 2 2 2 2 3 3 3 3 3 4 7 6 6 7 7 6 7
4 4 4 4 4 4 2 2 1 1 1 0 0 1 1 1 1 2 1 1 1 1 1 1 1 1 2 2 2 3 3 3 3 3 3 3 3 7 7 6 6 7 7
4 4 4 4 4 4 2 1 1 0 0 0 0 1 0 1 1 2 1 1 1 1 1 1 1 1 1 2 2 2 2 3 4 4 4 3 3 2 5 6 6 6 6
5 5 5 5 5 4 3 2 2 1 0 1 0 0 0 0 1 2 1 1 2 1 1 2 1 2 1 2 3 2 3 3 3 4 3 3 3 2 2 4 6 5 5
5 5 6 6 4 4 3 3 2 1 1 1 0 0 1 1 1 2 1 1 2 1 1 1 1 1 2 2 3 2 3 3 3 3 3 3 2 3 3 2 3 4 5
6 6 6 6 5 4 3 3 3 2 2 1 1 1 1 1 1 1 2 0 2 1 2 2 2 1 1 1 2 2 2 3 2 2 2 2 2 2 2 2 2 2 2
6 6 7 7 6 5 4 2 2 1 2 2 1 1 1 1 2 2 1 2 1 1 1 2 2 3 2 1 3 3 2 2 2 2 2 2 2 2 2 2 1 1 3
7 7 6 6 6 5 5 3 2 2 2 2 2 1 1 1 2 2 1 2 2 2 1 2 2 2 3 2 2 3 3 2 1 1 1 1 2 2 2 1 2 1 2
7 7 7 6 6 5 6 4 4 3 2 1 1 0 1 1 2 2 1 2 3 2 1 2 1 2 3 3 2 2 3 4 4 2 2 2 2 3 2 2 2 2 2
7 6 6 6 6 5 5 5 5 3 2 1 1 0 2 1 1 1 1 1 2 2 1 2 2 3 3 4 3 3 2 3 4 5 3 2 2 2 2 3 2 2 2
5 6 6 6 6 6 6 5 4 3 2 2 2 1 2 1 1 1 1 1 2 2 1 2 2 3 3 4 4 4 3 3 3 4 5 4 3 2 2 2 3 2 2
Wind_Direction
99 100 107 115 109 106 107 108 123 132 133 134 138 139 139 140 140 139 138 135 134 134 138 146 152 153 156 160 162 168 166 163 162 163 163 164 168 171 173 175 183 166 144
104 104 111 114 110 106 105 110 117 122 125 132 135 139 141 142 142 144 143 140 139 139 141 144 150 154 158 157 159 165 165 168 170 172 176 178 179 179 184 194 213 141 153
107 112 119 111 110 110 109 113 115 119 121 127 132 139 142 143 146 149 146 143 142 142 144 145 142 147 154 157 161 165 170 172 174 183 202 200 175 179 187 190 185 173 169
110 114 109 111 109 111 114 116 121 123 126 131 136 143 145 144 145 146 146 146 148 149 147 146 147 145 149 155 168 172 176 180 188 206 214 203 184 167 188 192 189 186 184
113 110 105 113 107 107 111 111 115 123 127 131 135 140 141 139 139 143 149 150 149 150 155 156 159 162 158 160 167 177 186 195 208 225 218 211 197 160 186 193 192 189 188
118 112 107 113 109 110 112 111 110 114 119 123 127 131 134 139 145 147 152 156 158 162 168 171 173 178 175 177 184 188 192 207 223 216 215 214 189 164 187 194 194 192 193
116 112 114 116 114 113 116 115 113 113 115 117 123 128 132 139 150 157 162 168 173 179 182 187 189 191 190 190 196 203 211 229 245 217 214 215 181 171 191 199 199 200 201
116 116 118 128 124 120 122 119 115 114 117 119 122 126 130 138 154 166 173 182 186 186 189 196 200 206 204 203 207 214 226 249 240 225 217 201 162 179 201 208 207 207 207
116 119 124 137 144 147 138 125 120 117 120 121 123 129 139 144 159 171 181 193 194 193 194 201 204 211 212 214 216 222 232 250 261 241 231 209 154 194 210 210 211 211 212
124 124 125 125 133 151 147 143 143 137 129 132 138 149 172 183 185 191 195 176 197 204 208 211 212 213 218 222 223 225 233 241 243 227 229 144 154 208 222 219 217 216 214
137 134 137 134 144 141 133 137 161 163 163 182 165 163 200 197 164 177 115 128 192 212 219 224 227 223 225 214 217 228 236 243 247 256 239 107 177 225 229 226 224 223 221
156 155 147 134 141 143 136 136 158 155 148 172 134 163 181 132 139 111 130 172 201 219 218 218 228 223 233 212 196 220 237 236 244 237 149 142 209 221 223 230 234 230 225
157 157 154 138 145 149 141 144 127 129 135 156 138 170 160 230 160 191 167 173 193 215 219 198 214 223 229 246 246 227 251 262 255 254 134 162 209 219 224 232 237 236 230
156 157 148 144 152 158 141 123 146 136 132 126 125 259 240 226 300 314 250 286 233 222 237 256 238 229 248 250 253 253 246 248 250 261 136 162 205 223 233 238 236 237 236
159 161 156 162 151 160 156 228 140 128 110 109 127 181 259 220 236 298 300 276 280 291 234 251 266 251 248 240 257 255 256 246 253 253 182 168 203 226 235 239 236 234 236
171 166 162 176 162 174 184 192 216 192 142 241 180 49 257 250 239 269 247 261 270 272 321 296 277 259 268 271 261 256 263 258 249 255 256 187 195 215 228 233 232 230 231
175 162 168 174 167 176 193 205 193 195 176 189 108 114 254 244 216 236 246 252 312 287 252 255 271 254 247 241 247 252 247 252 253 251 255 255 212 195 203 214 227 230 231
179 171 176 176 162 165 173 198 226 227 84 212 237 120 132 279 255 255 271 303 301 272 270 265 269 286 290 275 261 256 250 234 236 236 235 234 250 232 189 196 219 229 235
180 177 179 180 172 173 173 180 191 155 260 267 228 99 96 271 272 268 303 338 278 280 292 296 356 300 299 290 268 244 252 243 240 237 234 230 226 245 240 177 198 213 233
176 179 182 176 177 179 177 176 186 181 208 231 236 61 308 279 273 290 255 311 290 294 301 327 317 306 298 290 289 287 260 253 240 241 243 232 221 231 241 241 220 198 207
176 178 182 182 177 184 186 192 187 193 214 212 206 202 241 276 269 282 301 288 291 311 319 305 293 262 283 308 280 266 229 219 220 225 238 249 227 230 237 244 264 286 202
182 184 182 184 185 191 188 191 200 216 233 212 235 196 260 260 268 246 282 279 277 284 279 301 299 301 294 286 292 289 268 199 197 212 217 228 240 238 235 224 227 274 294
188 190 189 187 187 195 193 190 187 193 241 216 204 203 248 261 257 290 288 285 287 277 278 279 272 276 291 284 295 300 299 313 322 200 212 233 243 254 252 239 222 236 264
195 189 188 185 188 191 194 203 211 218 236 250 251 224 245 246 260 259 278 290 285 283 294 273 277 286 277 280 264 271 293 318 292 276 219 217 232 240 255 266 254 236 246
192 189 183 183 187 188 198 202 214 229 235 240 238 213 266 231 253 269 276 284 280 281 298 306 310 292 287 294 294 285 272 256 258 273 281 274 252 244 247 262 272 263 248
179 183 180 177 183 185 194 203 206 219 245 258 251 257 251 239 237 255 270 284 275 283 277 268 277 268 283 294 294 291 283 279 273 269 271 271 275 274 275 282 275 271 266